Location: Calvera
(42.3882°N, 0.6137°E)
Time: 13:56:19
(UTC+00:00)

METEOR-M - Pass Details

Date: 28 October 2020
Orbit: 815 x 820 km, 98.5° (Epoch: 25 November)

Event Time Altitude Azimuth Distance (km) Brightness Sun altitude
Rises 05:19:24 0° 7° (N) 3,354 7.3 -12.9°
Reaches altitude 10° 05:21:49 10° 2° (N) 2,417 6.5 -12.5°
Maximum altitude 05:26:56 48° 290° (WNW) 1,061 4.3 -11.5°
Drops below altitude 10° 05:32:00 10° 217° (SW) 2,400 6.3 -10.6°
Sets 05:34:24 0° 212° (SSW) 3,328 7.1 -10.2°
